Location: Hebron
(33.0265°N, 96.8636°W)
Time: 17:12:20
(UTC+00:00)

Okean 1 - Pass Details

Date: 03 July 2022
Orbit: 532 x 552 km, 82.5° (Epoch: 18 August)

Event Time Altitude Azimuth Distance (km) Brightness Sun altitude
Rises 08:58:06 0° 13° (NNE) 2,686 7.9 -24.0°
Reaches altitude 10° 09:00:50 10° 33° (NNE) 1,788 7.0 -23.7°
Maximum altitude 09:03:32 18° 77° (ENE) 1,361 5.9 -23.3°
Drops below altitude 10° 09:06:13 10° 120° (ESE) 1,777 6.0 -23.0°
Enters shadow 09:07:29 - 132° (SE) 2,164 6.3 -22.8°
